TimePDT,TemperatureF,Dew PointF,Humidity,Sea Level PressureIn,VisibilityMPH,Wind Direction,Wind SpeedMPH,Gust SpeedMPH,PrecipitationIn,Events,Conditions,WindDirDegrees,DateUTC
12:00 AM,48.7,45.9,90,30.08,-9999.0,NW,3.5,-,0.02,,Unknown,310,2013-10-12 07:00:00
1:00 AM,48.2,46.2,93,30.08,-9999.0,Calm,Calm,-,0.04,,Unknown,0,2013-10-12 08:00:00
2:00 AM,48.2,46.2,93,30.08,-9999.0,Calm,Calm,-,0.02,,Unknown,0,2013-10-12 09:00:00
3:00 AM,48.2,46.0,92,30.08,-9999.0,WNW,2.3,-,N/A,,Unknown,290,2013-10-12 10:00:00
4:00 AM,48.2,46.8,95,30.08,-9999.0,East,3.5,-,N/A,,Unknown,90,2013-10-12 11:00:00
5:00 AM,48,47,95,30.08,,East,3.5,,,,,80,2013-10-12 12:00:00
5:00 AM,48.0,46.9,96,30.08,-9999.0,East,3.5,-,N/A,,Unknown,80,2013-10-12 12:00:00
6:00 AM,48.0,46.9,96,30.09,-9999.0,East,4.6,-,N/A,,Unknown,90,2013-10-12 13:00:00
7:00 AM,47.8,46.8,96,30.09,-9999.0,East,3.5,-,N/A,,Unknown,80,2013-10-12 14:00:00
8:00 AM,47.5,46.2,95,30.10,-9999.0,NE,2.3,-,N/A,,Unknown,40,2013-10-12 15:00:00
9:00 AM,47.7,45.7,93,30.11,-9999.0,East,4.6,-,N/A,,Unknown,80,2013-10-12 16:00:00
10:00 AM,49.6,46.4,89,30.12,-9999.0,Calm,Calm,-,N/A,,Unknown,0,2013-10-12 17:00:00
11:00 AM,51,45,74,30.12,,ESE,1.2,,,,,110,2013-10-12 18:00:00
11:00 AM,50.9,45.3,81,30.12,-9999.0,ESE,1.2,-,N/A,,Unknown,110,2013-10-12 18:00:00
12:00 PM,50.2,46.9,89,30.13,-9999.0,SE,8.1,-,N/A,,Unknown,140,2013-10-12 19:00:00
1:00 PM,50.2,46.6,87,30.14,-9999.0,SE,4.6,-,N/A,,Unknown,140,2013-10-12 20:00:00
2:00 PM,51.4,46.2,82,30.14,-9999.0,ESE,2.3,-,N/A,,Unknown,120,2013-10-12 21:00:00
3:00 PM,55.6,47.3,74,30.15,-9999.0,Calm,Calm,-,N/A,,Unknown,0,2013-10-12 22:00:00
4:00 PM,51.6,46.4,82,30.16,-9999.0,West,3.5,-,N/A,,Unknown,280,2013-10-12 23:00:00
5:00 PM,53,46,69,30.16,,WNW,3.5,,,,,290,2013-10-13 00:00:00
5:00 PM,52.7,45.9,78,30.16,-9999.0,WNW,3.5,-,N/A,,Unknown,290,2013-10-13 00:00:00
6:00 PM,53.4,47.3,80,30.16,-9999.0,NW,2.3,-,N/A,,Unknown,310,2013-10-13 01:00:00
7:00 PM,51.4,44.8,78,30.18,-9999.0,NW,3.5,-,N/A,,Unknown,320,2013-10-13 02:00:00
8:00 PM,51.3,45.1,80,30.19,-9999.0,NW,3.5,-,N/A,,Unknown,310,2013-10-13 03:00:00
9:00 PM,48.7,44.6,86,30.19,-9999.0,WSW,2.3,-,N/A,,Unknown,240,2013-10-13 04:00:00
10:00 PM,48.9,45.9,89,30.21,-9999.0,East,2.3,-,N/A,,Unknown,100,2013-10-13 05:00:00
11:00 PM,49,45,83,30.22,,East,3.5,,,,,100,2013-10-13 06:00:00
11:00 PM,49.1,45.3,87,30.22,-9999.0,East,3.5,-,N/A,,Unknown,100,2013-10-13 06:00:00